Location: Blandford
(50.8667°N, 2.1667°W)
Time: 08:23:28
(UTC+00:00)

ERS-1 Rocket - Pass Details

Date: 09 April 2020
Orbit: 754 x 757 km, 98.5° (Epoch: 01 June)

Event Time Altitude Azimuth Distance (km) Brightness Sun altitude
Exits shadow 20:47:02 27° 111° (ESE) 1,413 3.8 -16.7°
Maximum altitude 20:49:01 39° 65° (ENE) 1,125 3.6 -17.0°
Drops below altitude 10° 20:53:41 10° 358° (N) 2,294 6.0 -17.5°
Sets 20:56:06 0° 351° (N) 3,223 7.0 -17.8°
